Location: Newark
(44.6768°N, 22.5302°E)
Time: 11:21:39
(UTC+00:00)

FALCONSAT 3 - Visible Passes

Search period start: 28 June 2022 00:00
Search period end: 08 July 2022 00:00
Orbit: 402 x 407 km, 35.4° (Epoch: 27 June)

Date Brightness Start Highest point End Pass type
(mag) Time Alt. Az. Time Alt. Az. Time Alt. Az.
01 Jul ? 19:00:31 10° S 19:01:05 10° SSE 19:01:39 10° SSE visible
02 Jul ? 19:42:09 10° SSW 19:44:08 16° S 19:44:08 16° S visible
03 Jul ? 20:25:18 10° SW 20:25:37 11° SW 20:25:37 11° SW visible
04 Jul ? 19:31:18 10° SW 19:33:30 17° S 19:34:18 15° SSE visible
05 Jul ? 20:14:57 10° SW 20:15:25 11° SW 20:15:25 11° SW visible
06 Jul ? 19:20:37 10° SW 19:22:33 15° S 19:23:52 12° SSE visible
